KD5UIG Weather Reports


Display with metric or nautical units.
time (UTC)temp
F
wind
direction
speed
MPH
gust
MPH
rain 1hr
in
rain 24hr
in
rain mn
in
humidity
%
barometer
mb
20210515161547 79 190 3.0 13.0 0.00 0.00 0.00 61 1018.9
20210515161052 79 249 4.0 12.0 0.00 0.00 0.00 61 1018.9
20210515160626 79 195 4.0 12.0 0.00 0.00 0.00 62 1018.9
20210515160109 79 200 5.0 13.0 0.00 0.00 0.00 61 1019.0
20210515155547 78 178 7.0 13.0 0.00 0.00 0.00 62 1018.9
20210515155118 78 212 4.0 13.0 0.00 0.00 0.00 61 1018.9
20210515154607 78 94 6.0 12.0 0.00 0.00 0.00 62 1018.9
20210515154051 77 202 6.0 11.0 0.00 0.00 0.00 63 1018.9
20210515153600 77 198 6.0 13.0 0.00 0.00 0.00 63 1018.9
20210515153101 77 206 7.0 18.0 0.00 0.00 0.00 63 1018.9
20210515152615 76 146 6.0 18.0 0.00 0.00 0.00 64 1018.8
20210515152048 76 234 6.0 14.0 0.00 0.00 0.00 66 1018.8
20210515151621 76 195 5.0 13.0 0.00 0.00 0.00 64 1018.9
20210515151104 76 181 4.0 10.0 0.00 0.00 0.00 66 1018.9
20210515150610 76 172 5.0 15.0 0.00 0.00 0.00 66 1018.9
20210515150109 75 188 5.0 17.0 0.00 0.00 0.00 67 1018.9
20210515145612 75 147 6.0 16.0 0.00 0.00 0.00 66 1018.9
20210515145045 74 188 6.0 16.0 0.00 0.00 0.00 69 1019.0
20210515144601 74 205 5.0 13.0 0.00 0.00 0.00 67 1018.9
20210515144101 73 199 5.0 17.0 0.00 0.00 0.00 69 1018.9
20210515143611 73 186 8.0 17.0 0.00 0.00 0.00 69 1019.0
20210515143120 73 196 5.0 12.0 0.00 0.00 0.00 70 1019.0
20210515142557 73 189 3.0 15.0 0.00 0.00 0.00 71 1019.1
20210515142057 72 246 6.0 18.0 0.00 0.00 0.00 73 1019.1
20210515141617 71 250 7.0 14.0 0.00 0.00 0.00 73 1019.1
20210515141042 71 171 7.0 17.0 0.00 0.00 0.00 74 1019.0
20210515140610 70 230 9.0 20.0 0.00 0.00 0.00 75 1019.0
20210515140102 70 221 7.0 19.0 0.00 0.00 0.00 76 1018.9
20210515135559 70 178 7.0 14.0 0.00 0.00 0.00 76 1019.0
20210515135054 70 226 6.0 16.0 0.00 0.00 0.00 77 1019.0
20210515134554 70 219 7.0 16.0 0.00 0.00 0.00 77 1018.9
20210515134048 70 161 3.0 11.0 0.00 0.00 0.00 78 1018.8
20210515133545 69 5 5.0 11.0 0.00 0.00 0.00 78 1018.8
20210515133050 69 157 4.0 9.0 0.00 0.00 0.00 78 1018.8
20210515132621 69 205 3.0 11.0 0.00 0.00 0.00 79 1018.8
20210515132047 68 175 5.0 12.0 0.00 0.00 0.00 79 1018.7
20210515131554 68 229 5.0 12.0 0.00 0.00 0.00 80 1018.7
20210515131053 67 194 5.0 10.0 0.00 0.00 0.00 81 1018.6
20210515130551 67 222 4.0 10.0 0.00 0.00 0.00 81 1018.6
20210515130123 66 209 5.0 10.0 0.00 0.00 0.00 82 1018.6
20210515125619 66 224 3.0 8.0 0.00 0.00 0.00 82 1018.6
20210515125104 66 133 3.0 9.0 0.00 0.00 0.00 83 1018.7
20210515124549 65 224 3.0 9.0 0.00 0.00 0.00 83 1018.7
20210515124056 65 180 2.0 8.0 0.00 0.00 0.00 84 1018.7
20210515123558 64 193 3.0 7.0 0.00 0.00 0.00 84 1018.7
20210515123052 64 196 3.0 8.0 0.00 0.00 0.00 85 1018.7
20210515122547 63 227 3.0 6.0 0.00 0.00 0.00 85 1018.6
20210515122100 63 204 3.0 7.0 0.00 0.00 0.00 85 1018.5
20210515121607 63 202 2.0 5.0 0.00 0.00 0.00 86 1018.4
20210515121115 62 121 2.0 5.0 0.00 0.00 0.00 86 1018.4
20210515120550 62 140 1.0 6.0 0.00 0.00 0.00 86 1018.4
20210515120104 62 216 2.0 6.0 0.00 0.00 0.00 86 1018.5
20210515115543 62 212 1.0 4.0 0.00 0.00 0.00 86 1018.5
20210515115101 62 131 2.0 6.0 0.00 0.00 0.00 85 1018.5
20210515114545 62 207 1.0 6.0 0.00 0.00 0.00 85 1018.5
20210515114107 62 231 1.0 6.0 0.00 0.00 0.00 85 1018.5
20210515113548 62 195 0.0 3.0 0.00 0.00 0.00 84 1018.5
20210515113046 62 210 1.0 5.0 0.00 0.00 0.00 84 1018.4
20210515112600 62 161 1.0 5.0 0.00 0.00 0.00 83 1018.3
20210515112049 62 106 1.0 3.0 0.00 0.00 0.00 83 1018.5
20210515111612 62 153 1.0 3.0 0.00 0.00 0.00 82 1018.5
20210515111043 62 136 1.0 3.0 0.00 0.00 0.00 82 1018.4
20210515110602 62 34 1.0 3.0 0.00 0.00 0.00 81 1018.4
20210515110126 62 153 1.0 7.0 0.00 0.00 0.00 81 1018.4
20210515105602 63 173 2.0 7.0 0.00 0.00 0.00 81 1018.5
20210515105121 63 160 2.0 5.0 0.00 0.00 0.00 80 1018.4
20210515104608 63 80 1.0 5.0 0.00 0.00 0.00 80 1018.4
20210515104101 63 173 1.0 5.0 0.00 0.00 0.00 79 1018.5
20210515103602 63 325 1.0 5.0 0.00 0.00 0.00 79 1018.5
20210515103043 63 144 1.0 4.0 0.00 0.00 0.00 78 1018.6
20210515102600 63 140 1.0 3.0 0.00 0.00 0.00 78 1018.7
20210515102126 63 43 2.0 4.0 0.00 0.00 0.00 78 1018.7
20210515101607 63 170 1.0 4.0 0.00 0.00 0.00 78 1018.8
20210515101055 63 119 1.0 4.0 0.00 0.00 0.00 78 1018.8
20210515100557 64 136 1.0 4.0 0.00 0.00 0.00 78 1018.9
20210515100053 64 141 1.0 3.0 0.00 0.00 0.00 78 1018.8
20210515095612 64 149 1.0 3.0 0.00 0.00 0.00 78 1018.8
20210515095120 64 123 1.0 3.0 0.00 0.00 0.00 78 1018.8
20210515094555 64 105 1.0 3.0 0.00 0.00 0.00 78 1018.9
20210515094102 64 112 1.0 3.0 0.00 0.00 0.00 78 1019.1
20210515093615 64 199 1.0 5.0 0.00 0.00 0.00 79 1019.0
20210515093112 64 149 0.0 2.0 0.00 0.00 0.00 79 1019.0
20210515092551 64 125 0.0 2.0 0.00 0.00 0.00 79 1019.1
20210515092102 64 123 0.0 2.0 0.00 0.00 0.00 79 1019.1
20210515091558 64 123 1.0 2.0 0.00 0.00 0.00 79 1019.0
20210515091056 64 126 0.0 3.0 0.00 0.00 0.00 79 1018.9
20210515090608 64 90 1.0 3.0 0.00 0.00 0.00 78 1018.9
20210515090047 65 153 1.0 3.0 0.00 0.00 0.00 78 1019.0
20210515085556 65 151 1.0 2.0 0.00 0.00 0.00 78 1018.9
20210515085044 65 125 0.0 2.0 0.00 0.00 0.00 78 1019.0
20210515084559 65 137 0.0 4.0 0.00 0.00 0.00 77 1019.1
20210515084107 65 138 1.0 4.0 0.00 0.00 0.00 78 1019.1
20210515083618 65 145 1.0 3.0 0.00 0.00 0.00 78 1019.2
20210515083102 65 150 1.0 4.0 0.00 0.00 0.00 78 1019.1
20210515082603 65 124 1.0 5.0 0.00 0.00 0.00 78 1019.1
20210515082047 65 187 0.0 5.0 0.00 0.00 0.00 78 1019.2
20210515081600 65 183 1.0 4.0 0.00 0.00 0.00 77 1019.2
20210515081055 65 213 1.0 4.0 0.00 0.00 0.00 77 1019.1
20210515080606 66 158 1.0 3.0 0.00 0.00 0.00 76 1019.1
20210515080114 66 202 1.0 4.0 0.00 0.00 0.00 76 1019.2
20210515075550 66 117 1.0 4.0 0.00 0.00 0.00 77 1019.3
20210515075042 65 101 1.0 3.0 0.00 0.00 0.00 77 1019.3
20210515074550 65 171 1.0 2.0 0.00 0.00 0.00 78 1019.4
20210515074054 65 94 0.0 2.0 0.00 0.00 0.00 78 1019.4
20210515073552 65 90 0.0 1.0 0.00 0.00 0.00 78 1019.4
20210515073047 65 90 0.0 1.0 0.00 0.00 0.00 78 1019.2
20210515072551 65 90 0.0 2.0 0.00 0.00 0.00 78 1019.1
20210515072102 65 90 0.0 2.0 0.00 0.00 0.00 78 1018.9
20210515071557 65 90 0.0 2.0 0.00 0.00 0.00 77 1019.0
20210515071059 65 90 0.0 2.0 0.00 0.00 0.00 77 1019.0
20210515070620 65 90 1.0 2.0 0.00 0.00 0.00 77 1019.0
20210515070104 65 115 1.0 2.0 0.00 0.00 0.00 77 1019.1
20210515065600 65 116 0.0 1.0 0.00 0.00 0.00 76 1019.1
20210515065102 65 116 0.0 1.0 0.00 0.00 0.00 76 1019.1
20210515064559 65 116 0.0 1.0 0.00 0.00 0.00 76 1019.1
20210515064059 65 116 0.0 2.0 0.00 0.00 0.00 76 1019.1
20210515063601 65 116 1.0 2.0 0.00 0.00 0.00 76 1019.1
20210515063102 65 117 0.0 1.0 0.00 0.00 0.00 76 1019.0
20210515062557 65 117 0.0 2.0 0.00 0.00 0.00 76 1019.0
20210515062051 65 123 1.0 2.0 0.00 0.00 0.00 76 1019.0
20210515061553 65 119 0.0 1.0 0.00 0.00 0.00 76 1019.0
20210515061049 65 119 1.0 1.0 0.00 0.00 0.00 76 1019.0
20210515060621 65 124 0.0 1.0 0.00 0.00 0.00 76 1018.9
20210515060054 65 124 1.0 2.0 0.00 0.00 0.00 76 1019.0
20210515055623 65 125 0.0 3.0 0.00 0.00 0.00 76 1019.0
20210515055100 66 123 1.0 3.0 0.00 0.00 0.00 75 1019.0
20210515054549 66 139 0.0 2.0 0.00 0.00 0.00 75 1018.9
20210515054048 66 139 1.0 3.0 0.00 0.00 0.00 74 1018.9
20210515053543 66 137 0.0 3.0 0.00 0.00 0.00 74 1019.0
20210515053053 66 134 1.0 5.0 0.00 0.00 0.00 74 1018.9
20210515052556 66 151 2.0 5.0 0.00 0.00 0.00 73 1018.8
20210515052103 66 125 1.0 3.0 0.00 0.00 0.00 73 1018.8
20210515051600 66 178 2.0 3.0 0.00 0.00 0.00 74 1018.7
20210515051105 66 126 1.0 3.0 0.00 0.00 0.00 74 1018.7
20210515050542 66 289 1.0 3.0 0.00 0.00 0.00 73 1018.6
20210515050055 67 119 1.0 5.0 0.00 0.00 0.00 73 1018.6
20210515045544 67 317 1.0 5.0 0.00 0.00 0.00 72 1018.8
20210515045043 67 233 1.0 5.0 0.00 0.00 0.00 72 1018.9
20210515044559 67 131 1.0 5.0 0.00 0.00 0.00 72 1019.1
20210515044101 67 123 1.0 4.0 0.00 0.00 0.00 71 1019.1
20210515043600 67 130 2.0 4.0 0.00 0.00 0.00 71 1019.2
20210515043103 67 163 1.0 5.0 0.00 0.00 0.00 71 1019.2
20210515042604 68 128 1.0 5.0 0.00 0.00 0.00 71 1019.3
20210515042049 68 146 2.0 4.0 0.00 0.00 0.00 70 1019.4
20210515041622 68 194 1.0 6.0 0.00 0.00 0.00 70 1019.3
20210515041047 68 126 2.0 4.0 0.00 0.00 0.00 70 1019.2
20210515040542 68 139 1.0 5.0 0.00 0.00 0.00 70 1019.3
20210515040057 68 143 1.0 5.0 0.00 0.00 0.00 71 1019.2
20210515035627 68 87 0.0 3.0 0.00 0.00 0.00 71 1019.2
20210515035059 68 96 1.0 3.0 0.00 0.00 0.00 71 1019.3
20210515034553 68 136 0.0 4.0 0.00 0.00 0.00 71 1019.2
20210515034102 68 119 1.0 5.0 0.00 0.00 0.00 70 1018.9
20210515033605 68 190 1.0 5.0 0.00 0.00 0.00 70 1018.9
20210515033108 68 161 2.0 5.0 0.00 0.00 0.00 70 1018.9
20210515032615 68 179 1.0 4.0 0.00 0.00 0.00 70 1018.8
20210515032046 68 202 2.0 4.0 0.00 0.00 0.00 69 1018.8
20210515031551 68 190 1.0 4.0 0.00 0.00 0.00 69 1018.7
20210515031046 68 157 2.0 4.0 0.00 0.00 0.00 69 1018.5
20210515030553 68 78 1.0 3.0 0.00 0.00 0.00 69 1018.6
20210515030052 68 128 1.0 6.0 0.00 0.00 0.00 68 1018.5
20210515025559 68 128 1.0 6.0 0.00 0.00 0.00 69 1018.3
20210515025054 68 275 1.0 3.0 0.00 0.00 0.00 69 1018.1
20210515024554 68 222 1.0 6.0 0.00 0.00 0.00 69 1018.0
20210515024042 68 103 2.0 6.0 0.00 0.00 0.00 69 1018.0
20210515023612 68 178 1.0 3.0 0.00 0.00 0.00 69 1017.8
20210515023043 68 211 0.0 3.0 0.00 0.00 0.00 69 1017.9
20210515022626 68 210 1.0 4.0 0.00 0.00 0.00 68 1017.8
20210515022101 69 177 1.0 5.0 0.00 0.00 0.00 68 1017.6
20210515021545 69 196 2.0 6.0 0.00 0.00 0.00 67 1017.5
20210515021055 69 147 1.0 8.0 0.00 0.00 0.00 66 1017.4
20210515020611 69 171 3.0 8.0 0.00 0.00 0.00 66 1017.3
20210515020055 69 137 3.0 9.0 0.00 0.00 0.00 66 1017.3
20210515015554 69 148 2.0 5.0 0.00 0.00 0.00 66 1017.2
20210515015052 70 100 2.0 6.0 0.00 0.00 0.00 66 1017.2
20210515014555 70 293 2.0 6.0 0.00 0.00 0.00 66 1017.1
20210515014050 70 117 3.0 7.0 0.00 0.00 0.00 65 1017.2
20210515013544 70 116 2.0 10.0 0.00 0.00 0.00 65 1017.4
20210515013119 71 142 3.0 10.0 0.00 0.00 0.00 64 1017.5
20210515012553 71 105 2.0 7.0 0.00 0.00 0.00 64 1017.4
20210515012045 71 234 3.0 9.0 0.00 0.00 0.00 64 1017.4
20210515011603 71 148 3.0 9.0 0.00 0.00 0.00 64 1017.4
20210515011102 71 281 3.0 9.0 0.00 0.00 0.00 63 1017.5
20210515010555 72 130 3.0 7.0 0.00 0.00 0.00 63 1017.4
20210515010059 72 167 3.0 9.0 0.00 0.00 0.00 63 1017.4
20210515005547 72 172 2.0 9.0 0.00 0.00 0.00 62 1017.4
20210515005101 73 104 1.0 5.0 0.00 0.00 0.00 62 1017.4
20210515004606 73 225 2.0 8.0 0.00 0.00 0.00 61 1017.5
20210515004044 74 191 2.0 8.0 0.00 0.00 0.00 60 1017.5
20210515003605 74 327 2.0 7.0 0.00 0.00 0.00 59 1017.6
20210515003058 74 178 2.0 7.0 0.00 0.00 0.00 59 1017.7
20210515002619 75 136 1.0 9.0 0.00 0.00 0.00 59 1017.7
20210515002103 75 123 3.0 9.0 0.00 0.00 0.00 58 1017.7
20210515001623 75 196 1.0 9.0 0.00 0.00 0.00 58 1017.9
20210515001059 76 286 3.0 8.0 0.00 0.00 0.00 57 1018.0
20210515000548 76 74 3.0 9.0 0.00 0.00 0.00 57 1018.1
20210515000046 76 155 3.0 7.0 0.00 0.00 0.00 57 1018.2
20210514235547 76 123 3.0 11.0 0.00 0.00 0.00 56 1018.4
20210514235050 77 73 4.0 11.0 0.00 0.00 0.00 56 1018.4
20210514234550 77 174 2.0 10.0 0.00 0.00 0.00 55 1018.5
20210514234103 77 165 2.0 11.0 0.00 0.00 0.00 56 1018.6
20210514233554 77 197 4.0 11.0 0.00 0.00 0.00 55 1018.7
20210514233104 77 112 3.0 10.0 0.00 0.00 0.00 54 1018.7
20210514232604 78 188 3.0 10.0 0.00 0.00 0.00 54 1018.8
20210514232105 78 125 3.0 9.0 0.00 0.00 0.00 55 1018.9
20210514231610 78 76 2.0 13.0 0.00 0.00 0.00 55 1018.9
20210514231108 78 168 4.0 13.0 0.00 0.00 0.00 54 1018.9
20210514230618 78 113 4.0 9.0 0.00 0.00 0.00 53 1018.9
20210514230104 78 127 2.0 9.0 0.00 0.00 0.00 53 1019.0
20210514225605 78 86 4.0 9.0 0.00 0.00 0.00 54 1019.0
20210514225046 77 200 2.0 9.0 0.00 0.00 0.00 54 1019.1
20210514224601 78 173 3.0 11.0 0.00 0.00 0.00 54 1019.2
20210514224123 79 66 4.0 11.0 0.00 0.00 0.00 52 1019.2
20210514223555 79 103 3.0 7.0 0.00 0.00 0.00 53 1019.3
20210514223117 79 160 3.0 10.0 0.00 0.00 0.00 52 1019.3
20210514222550 79 88 2.0 10.0 0.00 0.00 0.00 52 1019.3
20210514222106 79 97 3.0 9.0 0.00 0.00 0.00 54 1019.3
20210514221558 78 74 3.0 9.0 0.00 0.00 0.00 53 1019.4
20210514221100 78 119 3.0 9.0 0.00 0.00 0.00 51 1019.5
20210514220608 79 189 3.0 9.0 0.00 0.00 0.00 54 1019.6
20210514220048 79 211 2.0 8.0 0.00 0.00 0.00 56 1019.7
20210514215621 78 173 3.0 10.0 0.00 0.00 0.00 52 1019.8
20210514215048 79 141 3.0 11.0 0.00 0.00 0.00 53 1019.9
20210514214544 80 5 3.0 8.0 0.00 0.00 0.00 52 1019.9
20210514214120 78 211 2.0 8.0 0.00 0.00 0.00 53 1020.0
20210514213550 80 205 3.0 8.0 0.00 0.00 0.00 49 1020.0
20210514213054 80 214 2.0 7.0 0.00 0.00 0.00 50 1020.1
20210514212552 81 125 2.0 8.0 0.00 0.00 0.00 50 1020.1
20210514212043 82 74 3.0 8.0 0.00 0.00 0.00 47 1020.2
20210514211558 81 169 3.0 9.0 0.00 0.00 0.00 51 1020.2
20210514211059 81 144 3.0 9.0 0.00 0.00 0.00 49 1020.2
20210514210629 79 92 1.0 9.0 0.00 0.00 0.00 52 1020.4
20210514210054 80 69 3.0 9.0 0.00 0.00 0.00 50 1020.5
20210514205548 82 82 2.0 8.0 0.00 0.00 0.00 49 1020.5
20210514205051 83 183 2.0 7.0 0.00 0.00 0.00 49 1020.6
20210514204545 82 82 2.0 5.0 0.00 0.00 0.00 51 1020.7
20210514204045 81 199 2.0 7.0 0.00 0.00 0.00 51 1020.8
20210514203549 80 92 2.0 8.0 0.00 0.00 0.00 52 1020.9
20210514203049 81 106 3.0 9.0 0.00 0.00 0.00 49 1021.0
20210514202551 81 78 2.0 9.0 0.00 0.00 0.00 51 1021.2
20210514202106 80 66 2.0 8.0 0.00 0.00 0.00 50 1021.2
20210514201554 80 155 4.0 9.0 0.00 0.00 0.00 51 1021.2
20210514201103 79 142 3.0 8.0 0.00 0.00 0.00 52 1021.2
20210514200549 79 65 3.0 8.0 0.00 0.00 0.00 51 1021.3
20210514200056 78 100 2.0 4.0 0.00 0.00 0.00 53 1021.3
20210514195545 78 178 1.0 5.0 0.00 0.00 0.00 53 1021.4
20210514195059 79 137 2.0 7.0 0.00 0.00 0.00 52 1021.6
20210514194543 80 293 2.0 7.0 0.00 0.00 0.00 50 1021.6
20210514194122 81 63 2.0 6.0 0.00 0.00 0.00 52 1021.7
20210514193602 80 130 2.0 5.0 0.00 0.00 0.00 54 1021.6
20210514193120 78 121 1.0 8.0 0.00 0.00 0.00 52 1021.7
20210514192558 80 275 2.0 9.0 0.00 0.00 0.00 49 1021.8
20210514192042 79 165 2.0 9.0 0.00 0.00 0.00 53 1021.8
20210514191622 78 155 2.0 5.0 0.00 0.00 0.00 52 1021.9
20210514191054 80 165 2.0 6.0 0.00 0.00 0.00 52 1021.9
20210514190622 80 137 3.0 10.0 0.00 0.00 0.00 50 1022.0
20210514190052 80 132 2.0 10.0 0.00 0.00 0.00 52 1022.0
20210514185605 80 47 3.0 10.0 0.00 0.00 0.00 53 1021.9
20210514185108 80 138 2.0 9.0 0.00 0.00 0.00 53 1021.9
20210514184557 80 146 3.0 7.0 0.00 0.00 0.00 50 1021.9
20210514184051 80 257 3.0 9.0 0.00 0.00 0.00 53 1022.1
20210514183550 79 158 3.0 10.0 0.00 0.00 0.00 53 1022.2
20210514183059 78 104 3.0 10.0 0.00 0.00 0.00 55 1022.2
20210514182546 78 5 2.0 8.0 0.00 0.00 0.00 55 1022.2
20210514182123 78 66 3.0 8.0 0.00 0.00 0.00 53 1022.3
20210514181553 77 178 2.0 9.0 0.00 0.00 0.00 55 1022.4
20210514181044 79 311 3.0 8.0 0.00 0.00 0.00 53 1022.5
20210514180547 78 82 2.0 10.0 0.00 0.00 0.00 54 1022.5
20210514180048 79 52 2.0 9.0 0.00 0.00 0.00 53 1022.6
20210514175618 78 181 4.0 9.0 0.00 0.00 0.00 52 1022.5
20210514175053 80 84 2.0 8.0 0.00 0.00 0.00 54 1022.6
20210514174544 77 182 2.0 10.0 0.00 0.00 0.00 56 1022.6
20210514174042 78 169 2.0 10.0 0.00 0.00 0.00 55 1022.6
20210514173550 76 71 2.0 7.0 0.00 0.00 0.00 60 1022.7
20210514173103 75 116 2.0 8.0 0.00 0.00 0.00 55 1022.8
20210514172554 77 147 3.0 7.0 0.00 0.00 0.00 55 1022.8
20210514172054 78 208 3.0 9.0 0.00 0.00 0.00 54 1022.8
20210514171549 76 167 3.0 10.0 0.00 0.00 0.00 56 1022.8
20210514171058 76 208 3.0 10.0 0.00 0.00 0.00 55 1022.9
20210514170556 76 163 3.0 7.0 0.00 0.00 0.00 54 1022.9
20210514170044 76 117 2.0 8.0 0.00 0.00 0.00 55 1023.0
20210514165544 76 238 3.0 9.0 0.00 0.00 0.00 55 1023.0
20210514165052 76 134 4.0 9.0 0.00 0.00 0.00 55 1023.0
20210514164601 76 176 3.0 8.0 0.00 0.00 0.00 55 1023.1
20210514164050 76 62 3.0 10.0 0.00 0.00 0.00 55 1023.0
20210514163547 76 5 3.0 11.0 0.00 0.00 0.00 57 1023.1
20210514163046 76 30 2.0 11.0 0.00 0.00 0.00 55 1023.2
20210514162543 76 180 4.0 10.0 0.00 0.00 0.00 53 1023.2
20210514162050 76 229 2.0 7.0 0.00 0.00 0.00 56 1023.2